Regional Weather Roundup
Issued by NWS

Home | Current Version | Previous Version | Graphics & Text | Print | Product List | Glossary Off
Versions: 1 2 3 4 5 6 7 8 9 10 11 12 13 14 15 16 17 18 19 20 21 22 23 24 25 26 27 28 29 30 31 32 33 34 35 36 37 38 39 40 41 42 43 44 45 46 47 48 49 50

000
ASUS43 KMKX 210211
RWRWI

WISCONSIN REGIONAL WEATHER ROUNDUP
NATIONAL WEATHER SERVICE MILWAUKEE/SULLIVAN WI
900 PM CDT MON APR 20 2015

NOTE: "FAIR" INDICATES FEW OR NO CLOUDS BELOW 12,000 FEET WITH NO
SIGNIFICANT WEATHER AND/OR OBSTRUCTIONS TO VISIBILITY.

WIZ001-002-006>008-014>016-023>028-210300-
NORTHWEST WISCONSIN

CITY           SKY/WX    TMP DP  RH WIND       PRES   REMARKS
SUPERIOR ARPT  CLOUDY    34  31  86 W14G20    29.42S WCI  25
ASHLAND        CLOUDY    35  27  72 W10G21    29.39S WCI  27
HAYWARD        LGT SNOW  34  27  75 VRB6      29.43R WCI  29
SIREN          CLOUDY    35  31  87 W8        29.48S WCI  28
CUMBERLAND     LGT SNOW  32  30  93 W12G23    29.46S WCI  23
RICE LAKE      FLURRIES  36  31  82 W10G16    29.48R WCI  28
CHETEK         FLURRIES  36  31  81 W9G16     29.47R WCI  29
LADYSMITH      CLOUDY    37  28  70 W13       29.45S WCI  29
EAU CLAIRE     CLOUDY    39  27  62 W10       29.47S WCI  32
MENOMONIE      CLOUDY    41  30  65 W15       29.49R
NEW RICHMOND   CLOUDY    37  29  74 W17       29.50S WCI  27
OSCEOLA        CLOUDY    38  31  76 W14       29.53S WCI  29
$$

WIZ003>005-009-010-017-018-210300-
NORTH CENTRAL WISCONSIN

CITY           SKY/WX    TMP DP  RH WIND       PRES   REMARKS
MANITOWISH WTR CLOUDY    34  29  83 W7        29.36S WCI  27
ARBOR VITAE    CLOUDY    37  30  78 W7        29.37R WCI  31
WOODRUFF       CLOUDY    37  30  78 W7        29.37R WCI  31
RHINELANDER    CLOUDY    35  28  75 W12G24    29.38R WCI  27
EAGLE RIVER    CLOUDY    34  28  77 W12G18    29.36R WCI  26
LAND O LAKES   CLOUDY    34  30  86 W9G16     29.35R WCI  26
PHILLIPS       CLOUDY    35  27  72 W7        29.39S WCI  29
TOMAHAWK       CLOUDY    35  27  73 W5        29.40S WCI  31
MEDFORD        CLOUDY    35  27  74 W13G18    29.43R WCI  26
MERRILL        CLOUDY    37  29  74 W8        29.41S WCI  31
$$

WIZ029-030-035-036-043>047-210300-
CENTRAL WISCONSIN

CITY           SKY/WX    TMP DP  RH WIND       PRES   REMARKS
WAUSAU         CLOUDY    38  28  67 W15       29.42R WCI  29
MOSINEE        CLOUDY    37  28  70 W17G25    29.45R WCI  28
MARSHFIELD     CLOUDY    38  26  62 W15G23    29.45R WCI  29
STEVENS POINT  CLOUDY    37  28  70 SW8G16    29.46S WCI  31
WAUPACA        CLOUDY    41  30  65 W9G16     29.48R
WAUTOMA        CLOUDY    40  30  67 W12       29.49S WCI  33
WISC RAPIDS    LGT RAIN  40  28  62 W10       29.48S WCI  33
CAMP DOUGLAS   CLOUDY    41  30  65 W18G26    29.50R
$$

WIZ011>013-019>022-031-037>040-048>050-210300-
NORTHEAST WISCONSIN

CITY           SKY/WX    TMP DP  RH WIND       PRES   REMARKS
ANTIGO         CLOUDY    35  29  78 W13G20    29.40S WCI  27
SHAWANO        CLOUDY    41  31  68 W8        29.44S
OCONTO         CLOUDY    39  32  75 W14       29.42S WCI  31
STURGEON BAY   CLOUDY    39  28  65 W14G21    29.44R WCI  31
GREEN BAY      CLOUDY    41  31  67 W8        29.45S
MANITOWOC      CLOUDY    42  31  64 W18G25    29.46R
APPLETON       CLOUDY    39  28  65 W17       29.47R WCI  30
CLINTONVILLE   CLOUDY    39  30  70 W10       29.45R WCI  32
OSHKOSH        CLOUDY    40  30  67 W9G17     29.48R WCI  34
$$

WIZ032>034-041-042-053>061-210300-
SOUTHWEST WISCONSIN

CITY           SKY/WX    TMP DP  RH WIND       PRES   REMARKS
LA CROSSE      CLOUDY    43  29  57 W13       29.54S
SPARTA         CLOUDY    40  26  56 W8G17     29.53S WCI  35
VIROQUA        CLOUDY    39  29  65 W12G23    29.54S WCI  32
BOSCOBEL       CLOUDY    44  30  57 W9G17     29.58S
PRAIRIE DU CHI CLOUDY    42  31  65 W15       29.60S
PLATTEVILLE    CLOUDY    41  33  73 W18G24    29.60S
$$

WIZ056-057-062-063-064-067-068-210300-
SOUTH CENTRAL WISCONSIN

CITY           SKY/WX    TMP DP  RH WIND       PRES   REMARKS
REEDSBURG      CLOUDY    41  29  62 W16G22    29.52S
BARABOO/DELLS  CLOUDY    41  28  60 W13G18    29.52S
LONE ROCK      CLOUDY    43  29  57 W14G29    29.56R
MINERAL POINT  CLOUDY    43  32  65 W16       29.57R
MADISON        CLOUDY    43  29  57 W15G21    29.54R
MIDDLETON      CLOUDY    43  28  55 W18G26    29.55R
WATERTOWN      CLOUDY    41  32  69 W9        29.53S
MONROE         CLOUDY    41  32  70 W20       29.58R
JANESVILLE     MOCLDY    45  30  57 W16G22    29.56R
$$

WIZ051-052-058>065-066-070>072-210300-
SOUTHEAST WISCONSIN

CITY           SKY/WX    TMP DP  RH WIND       PRES   REMARKS
MILWAUKEE      MOCLDY    43  28  55 W13G23    29.54R
WAUKESHA       NOT AVBL
MILWAUKEE/TIMM CLOUDY    43  27  52 W15G28    29.53R
RACINE         CLOUDY    44  30  57 W13       29.56R
BURLINGTON     CLOUDY    40  32  70 W10       29.55S WCI  34
KENOSHA        CLOUDY    43  31  62 W13       29.56R
FOND DU LAC    CLOUDY    41  29  62 W10       29.50R
SHEBOYGAN      CLOUDY    41  31  67 W20G25    29.48R
WEST BEND      CLOUDY    41  28  60 W18       29.51R
JUNEAU         CLOUDY    40  31  71 W10       29.53S WCI  33
$$

LSZ147-162-210300-
LAKE SUPERIOR

STATION/POSITION TIME  TEMP    WIND        PRES    WAVE
                       AIR SEA DIR/SP/G            HT/PER
                 (UTC) (F)     (DEG/KT/KT) (MB)    (FT/S)
DEVILS ISLAND    0200   36     260/ 21/ 24  994.3F
PORT WING        0100   37     260/ 12/ 21  995.9
SAXON HARBOR     0100   38     270/  8/ 15  994.9S
$$

LMZ867-665-643>646-210300-
LAKE MICHIGAN

STATION/POSITION TIME  TEMP    WIND        PRES    WAVE
                       AIR SEA DIR/SP/G            HT/PER
                 (UTC) (F)     (DEG/KT/KT) (MB)    (FT/S)
CHAMBERS ISLAND  0100   40     230/  9/ 20  995.6R
NORTHPORT PIER   0100   40     280/  5/  9  995.3R
SISTER BAY       0132   36     310/ 20/ 24   N/A
KEWAUNEE LAKESHO 0100   42     280/ 14/ 23  995.8R
SHEBOYGAN LAKESH 0200   42     260/ 13/ 16  999.2R
PORT WASHINGTON  0100   44     270/ 11/ 25  999.7
MILWAUKEE LAKESH 0100   45     270/ 15/ 21   N/A
KENOSHA   LAKESH 0200   44     270/ 10/ 17 1001.4R
$$

TC  - TEMPERATURE IN CELSIUS
VSB - VISIBILITY IN STATUTE MILES
WCI - WIND CHILL INDEX
HX  - HEAT INDEX



USA.gov is the U.S. government's official web portal to all federal, state and local government web resources and services.